FENGYUN 1C DEB, 29813

Orbit data source: Space-Track

FENGYUN 1C DEB, 29813 is space debris in SSO originally from a launch on Mon, 10 May 1999 UTC launched from the Taiyaun Space Center, China (TSC). Fengyun 1C debris stems from the Chinese weather satellite Fengyun-1C, which was intentionally destroyed by a Chinese anti-satellite missile in 2007. This event dramatically increased the amount of space debris, with thousands of trackable fragments posing hazards to satellites and human spaceflight. The Fengyun 1C debris cloud has become a focal point in discussions about space sustainability and the need for international regulations to prevent the creation of new debris.

Loading next visibility...
Identifier
29813, 1999-025DF
Orbit
SSO
Country
Flag of CNCN / PRC
Related business
Manufacturer
Unknown
Mission
Spacecraft
Bus & Motor
Unknown
Mass
Unknown
Launch date (UTC)
1999-05-10 (27 years ago)
Launch vehicle
Unknown
Launch site
Taiyaun Space Center, China (TSC)
Object type
Payload
Rocket body
Debris
Shape & HBR
Unknown shape, 0.1 m
Radar Cross Section
Medium (>0.1 m² and <1 m²)

Expand to show TLE details & history
Last TLE update: 11 hours ago

TLE from 11 hours ago
0 FENGYUN 1C DEB
1 29813U 99025DF  26170.28711985  .00000114  00000-0  89591-4 0  9997
2 29813  98.7127 189.2241 0013473  55.2891   6.3843 14.09505304999163
Epoch: 2026-06-19T06:53Z
TLE epoch observation values (Epoch: 2026-06-19T06:53:27.155Z)
Latitude
60.5821°
Longitude
162.65816°
Altitude
861.661 km
Speed
7.432 km/s
True Right ascension
11h 34m 09s
True Declination
60° 26' 13"
Sunlit
Object was in daylight at epoch
Visualization orbit readout
Latitude
Unknown
Longitude
Unknown
Altitude
Unknown
Speed
Unknown
Apparent Right ascension
Unknown
Apparent Declination
Unknown
Sunlit
N/A
Visualization observer readout
Local Sidereal Time
04:32:19
Azimuth
Unknown
Elevation
Unknown
Doppler factor
Unknown
Orbital elements
Apogee altitude
867.987 km
Perigee altitude
848.488 km
Semi-major axis
7,236.375 km
Eccentricity
0.00135
Inclination
98.7127°
RAAN
189.2241°
Arg. of periapsis
55.2891°
True anomaly
6.4015°
Mean anomaly
6.3843°
Eccentric anomaly
6.3929°
Mean motion
3.52583 °/min
Orbital period
102.1 mins
BSTAR
0.000089591
Loading maneuver chart data...
Computing Atmospheric mass density...

Documentation

Showing up to 5 results
|